{"data":{"norad_id":65986,"epoch":"2026-09-20T21:02:10.699008Z","epoch_age_seconds":107885,"freshness":"FRESH","line1":"1 65986U 25230N   26263.87651272  .00000038  00000+0  25951-4 0  9999","line2":"2 65986  81.2999 124.7641 0000670  44.0848 316.0358 13.78091528 46943","mean_motion":13.78091528,"eccentricity":6.7e-5,"inclination_deg":81.2999,"raan_deg":124.7641,"arg_perigee_deg":44.0848,"mean_anomaly_deg":316.0358,"bstar":2.5951e-5,"rev_number":4694,"period_min":104.49233383575,"perigee_km":970.17127369872,"apogee_km":971.15601298492,"semimajor_km":7348.8006433418,"source":"CELESTRAK","updated_at":"2026-09-21T09:00:15.689404Z"}}